Location: La Brionne
(46.1728°N, 1.7849°E)
Time: 10:20:15
(UTC+00:00)

FENGYUN 1C DEB - Visible Passes

Search period start: 24 July 2024 00:00
Search period end: 03 August 2024 00:00
Orbit: 800 x 864 km, 98.6° (Epoch: 23 July)

Date Brightness Start Highest point End Pass type
(mag) Time Alt. Az. Time Alt. Az. Time Alt. Az.
24 Jul ? 20:19:55 10° WSW 20:22:38 14° W 20:25:21 10° WNW visible
25 Jul ? 20:01:23 10° SW 20:05:10 20° W 20:09:01 10° NW visible
29 Jul ? 20:36:30 10° W 20:37:04 10° W 20:37:36 10° W visible
30 Jul ? 20:16:35 10° WSW 20:19:32 15° W 20:22:32 10° NW visible
31 Jul ? 19:58:08 10° SW 20:02:04 21° W 20:06:05 10° NW visible
